Вернуться в каталог

COSMOS 970 DEB

АктивенLEO
NORAD 64974·DEBRIS·🇷🇺 Russia

Запущен Dec 21, 1977 с Baikonur Cosmodrome

Loading…

Ближайшие Пролёты (ближайшие 24 часа)

TLE

УстаревающийSource: Space-Track

Эпоха: Sep 11, 2026, 03:07 UTC

1 64974U 77121CK  26254.13032162  .00000279  00000-0  62084-3 0  9996
2 64974  65.9413 151.1012 0082473 146.7443   1.8299 13.41275216626100

Отслеживайте COSMOS 970 DEB в реальном времени с AllMySat

Download on the App Store